Year,Month,Day,Hour,Minute,Value (Times are PST for windspeed in km/hr)
2005,05,19,00,00,0.60
2005,05,19,00,01,1.90
2005,05,19,00,02,1.90
2005,05,19,00,03,0.50
2005,05,19,00,04,0.00
2005,05,19,00,05,0.30
2005,05,19,00,06,0.00
2005,05,19,00,07,0.90
2005,05,19,00,08,0.10
2005,05,19,00,09,0.00
2005,05,19,00,10,0.00
2005,05,19,00,11,0.00
2005,05,19,00,12,0.00
2005,05,19,00,13,0.00
2005,05,19,00,14,0.00
2005,05,19,00,15,0.00
2005,05,19,00,16,0.00
2005,05,19,00,22,0.00
2005,05,19,00,27,2.30
2005,05,19,00,28,1.50
2005,05,19,00,29,4.30
2005,05,19,00,30,7.30
2005,05,19,00,31,6.80
2005,05,19,00,32,6.10
2005,05,19,00,33,5.10
2005,05,19,00,34,5.30
2005,05,19,00,35,6.60
2005,05,19,00,36,6.30
2005,05,19,00,37,5.20
2005,05,19,00,38,2.00
2005,05,19,00,39,1.50
2005,05,19,00,40,0.10
2005,05,19,00,41,1.50
2005,05,19,00,42,0.00
2005,05,19,00,43,0.00
2005,05,19,00,44,0.50
2005,05,19,00,45,1.20
2005,05,19,00,46,0.70
2005,05,19,00,47,2.40
2005,05,19,00,48,0.20
2005,05,19,00,49,0.00
2005,05,19,00,50,0.00
2005,05,19,00,51,0.00
2005,05,19,00,52,0.40
2005,05,19,00,53,0.80
2005,05,19,00,54,0.00
2005,05,19,00,55,0.00
2005,05,19,00,56,0.10
2005,05,19,00,57,0.10
2005,05,19,00,58,0.30
2005,05,19,00,59,2.60
2005,05,19,01,00,1.00
2005,05,19,01,01,0.30
2005,05,19,01,02,0.00
2005,05,19,01,03,0.00
2005,05,19,01,04,0.00
2005,05,19,01,05,0.00
2005,05,19,01,06,0.00
2005,05,19,01,07,0.00
2005,05,19,01,08,0.00
2005,05,19,01,09,0.00
2005,05,19,01,10,0.00
2005,05,19,01,11,0.00
2005,05,19,01,12,0.20
2005,05,19,01,13,1.60
2005,05,19,01,14,0.90
2005,05,19,01,15,0.60
2005,05,19,01,16,0.00
2005,05,19,01,17,0.00
2005,05,19,01,18,0.10
2005,05,19,01,19,0.00
2005,05,19,01,20,0.00
2005,05,19,01,21,0.00
2005,05,19,01,22,0.00
2005,05,19,01,23,0.00
2005,05,19,01,24,0.00
2005,05,19,01,25,0.00
2005,05,19,01,26,0.00
2005,05,19,01,27,0.00
2005,05,19,01,28,0.00
2005,05,19,01,29,0.00
2005,05,19,01,30,0.00
2005,05,19,01,31,0.00
2005,05,19,01,32,0.00
2005,05,19,01,33,0.00
2005,05,19,01,34,0.00
2005,05,19,01,35,0.00
2005,05,19,01,36,0.30
2005,05,19,01,37,0.10
2005,05,19,01,38,0.10
2005,05,19,01,39,0.00
2005,05,19,01,40,0.10
2005,05,19,01,41,1.50
2005,05,19,01,42,1.40
2005,05,19,01,43,2.60
2005,05,19,01,44,2.00
2005,05,19,01,45,0.20
2005,05,19,01,46,0.00
2005,05,19,01,47,0.00
2005,05,19,01,48,0.00
2005,05,19,01,49,0.60
2005,05,19,01,50,0.80
2005,05,19,01,51,0.00
2005,05,19,01,52,0.00
2005,05,19,01,53,0.10
2005,05,19,01,54,0.00
2005,05,19,01,55,0.00
2005,05,19,01,56,0.00
2005,05,19,01,57,0.00
2005,05,19,01,58,0.00
2005,05,19,01,59,0.20
2005,05,19,02,00,0.20
2005,05,19,02,01,1.00
2005,05,19,02,02,0.50
2005,05,19,02,03,0.60
2005,05,19,02,04,0.10
2005,05,19,02,05,0.00
2005,05,19,02,06,0.00
2005,05,19,02,07,0.00
2005,05,19,02,08,0.00
2005,05,19,02,09,0.00
2005,05,19,02,10,0.00
2005,05,19,02,11,0.00
2005,05,19,02,12,0.00
2005,05,19,02,13,0.30
2005,05,19,02,14,0.30
2005,05,19,02,15,0.00
2005,05,19,02,16,0.00
2005,05,19,02,17,0.00
2005,05,19,02,18,0.00
2005,05,19,02,19,0.10
2005,05,19,02,20,0.00
2005,05,19,02,21,0.00
2005,05,19,02,22,0.00
2005,05,19,02,23,0.00
2005,05,19,02,24,0.00
2005,05,19,02,25,0.00
2005,05,19,02,26,0.00
2005,05,19,02,27,0.00
2005,05,19,02,28,0.00
2005,05,19,02,29,0.00
2005,05,19,02,30,0.00
2005,05,19,02,31,0.00
2005,05,19,02,32,0.00
2005,05,19,02,33,0.00
2005,05,19,02,34,0.00
2005,05,19,02,35,0.00
2005,05,19,02,36,1.70
2005,05,19,02,37,1.40
2005,05,19,02,38,1.00
2005,05,19,02,39,1.10
2005,05,19,02,40,0.00
2005,05,19,02,41,0.00
2005,05,19,02,42,0.10
2005,05,19,02,43,0.00
2005,05,19,02,44,0.00
2005,05,19,02,45,0.00
2005,05,19,02,46,0.00
2005,05,19,02,47,0.00
2005,05,19,02,48,0.00
2005,05,19,02,49,0.00
2005,05,19,02,50,0.00
2005,05,19,02,51,0.00
2005,05,19,02,52,0.00
2005,05,19,02,53,0.00
2005,05,19,02,54,0.00
2005,05,19,02,55,0.00
2005,05,19,02,56,0.00
2005,05,19,02,57,0.00
2005,05,19,02,58,0.00
2005,05,19,02,59,0.00
2005,05,19,03,00,0.00
2005,05,19,03,01,0.00
2005,05,19,03,02,0.00
2005,05,19,03,03,0.00
2005,05,19,03,04,0.00
2005,05,19,03,05,0.00
2005,05,19,03,06,0.00
2005,05,19,03,07,1.50
2005,05,19,03,08,0.90
2005,05,19,03,09,0.00
2005,05,19,03,10,0.00
2005,05,19,03,11,0.00
2005,05,19,03,12,0.00
2005,05,19,03,13,0.00
2005,05,19,03,14,0.00
2005,05,19,03,15,0.00
2005,05,19,03,16,0.00
2005,05,19,03,17,0.00
2005,05,19,03,18,0.00
2005,05,19,03,19,0.00
2005,05,19,03,20,0.00
2005,05,19,03,21,0.00
2005,05,19,03,22,0.00
2005,05,19,03,23,0.00
2005,05,19,03,24,0.00
2005,05,19,03,25,0.00
2005,05,19,03,26,0.00
2005,05,19,03,27,0.00
2005,05,19,03,28,0.00
2005,05,19,03,29,0.00
2005,05,19,03,30,0.00
2005,05,19,03,31,0.00
2005,05,19,03,32,0.00
2005,05,19,03,33,0.00
2005,05,19,03,34,0.00
2005,05,19,03,35,0.00
2005,05,19,03,36,0.20
2005,05,19,03,37,2.50
2005,05,19,03,38,3.50
2005,05,19,03,39,3.10
2005,05,19,03,40,3.10
2005,05,19,03,41,0.70
2005,05,19,03,42,0.00
2005,05,19,03,43,0.60
2005,05,19,03,44,1.40
2005,05,19,03,45,0.40
2005,05,19,03,46,1.60
2005,05,19,03,47,2.60
2005,05,19,03,48,0.00
2005,05,19,03,49,0.00
2005,05,19,03,50,0.30
2005,05,19,03,51,0.00
2005,05,19,03,52,0.10
2005,05,19,03,53,0.30
2005,05,19,03,54,0.30
2005,05,19,03,55,0.30
2005,05,19,03,56,1.10
2005,05,19,03,57,0.60
2005,05,19,03,58,0.50
2005,05,19,03,59,0.00
2005,05,19,04,00,0.00
2005,05,19,04,01,0.00
2005,05,19,04,02,0.00
2005,05,19,04,03,0.00
2005,05,19,04,04,0.00
2005,05,19,04,05,0.00
2005,05,19,04,06,0.00
2005,05,19,04,07,0.00
2005,05,19,04,08,0.00
2005,05,19,04,09,0.40
2005,05,19,04,10,1.00
2005,05,19,04,11,0.00
2005,05,19,04,12,0.00
2005,05,19,04,13,0.00
2005,05,19,04,14,0.00
2005,05,19,04,15,0.00
2005,05,19,04,16,1.20
2005,05,19,04,17,1.60
2005,05,19,04,18,1.00
2005,05,19,04,19,0.30
2005,05,19,04,20,0.00
2005,05,19,04,21,0.00
2005,05,19,04,22,0.00
2005,05,19,04,23,0.00
2005,05,19,04,24,0.00
2005,05,19,04,25,0.10
2005,05,19,04,26,0.10
2005,05,19,04,27,0.00
2005,05,19,04,28,0.00
2005,05,19,04,29,0.00
2005,05,19,04,30,0.00
2005,05,19,04,31,0.00
2005,05,19,04,32,0.10
2005,05,19,04,33,0.00
2005,05,19,04,34,0.00
2005,05,19,04,35,0.00
2005,05,19,04,36,0.00
2005,05,19,04,37,0.00
2005,05,19,04,38,0.70
2005,05,19,04,39,0.80
2005,05,19,04,40,0.00
2005,05,19,04,41,0.00
2005,05,19,04,42,0.20
2005,05,19,04,43,0.40
2005,05,19,04,44,0.10
2005,05,19,04,45,0.20
2005,05,19,04,46,0.00
2005,05,19,04,47,0.00
2005,05,19,04,48,0.10
2005,05,19,04,49,1.10
2005,05,19,04,50,0.00
2005,05,19,04,51,1.30
2005,05,19,04,52,1.50
2005,05,19,04,53,0.90
2005,05,19,04,54,0.30
2005,05,19,04,55,0.30
2005,05,19,04,56,0.00
2005,05,19,04,57,0.80
2005,05,19,04,58,2.40
2005,05,19,04,59,2.90
2005,05,19,05,00,1.80
2005,05,19,05,01,0.50
2005,05,19,05,02,0.50
2005,05,19,05,03,0.40
2005,05,19,05,04,0.00
2005,05,19,05,05,0.00
2005,05,19,05,06,0.70
2005,05,19,05,07,0.70
2005,05,19,05,08,0.00
2005,05,19,05,09,0.30
2005,05,19,05,10,0.50
2005,05,19,05,11,0.00
2005,05,19,05,12,0.00
2005,05,19,05,13,0.00
2005,05,19,05,14,0.30
2005,05,19,05,15,1.40
2005,05,19,05,16,5.30
2005,05,19,05,17,3.90
2005,05,19,05,18,5.90
2005,05,19,05,19,4.50
2005,05,19,05,20,3.00
2005,05,19,05,21,0.90
2005,05,19,05,22,1.50
2005,05,19,05,23,0.20
2005,05,19,05,24,1.20
2005,05,19,05,25,0.10
2005,05,19,05,26,0.30
2005,05,19,05,27,1.40
2005,05,19,05,28,0.00
2005,05,19,05,29,0.10
2005,05,19,05,30,0.10
2005,05,19,05,31,0.00
2005,05,19,05,32,0.00
2005,05,19,05,33,1.80
2005,05,19,05,34,3.10
2005,05,19,05,35,3.00
2005,05,19,05,36,5.60
2005,05,19,05,37,6.10
2005,05,19,05,38,5.60
2005,05,19,05,39,3.40
2005,05,19,05,40,1.30
2005,05,19,05,41,0.10
2005,05,19,05,42,0.00
2005,05,19,05,43,0.00
2005,05,19,05,44,0.00
2005,05,19,05,45,0.30
2005,05,19,05,46,0.70
2005,05,19,05,47,0.60
2005,05,19,05,48,0.00
2005,05,19,05,49,0.00
2005,05,19,05,50,0.00
2005,05,19,05,51,0.10
2005,05,19,05,52,0.90
2005,05,19,05,53,0.70
2005,05,19,05,54,1.10
2005,05,19,05,55,0.30
2005,05,19,05,56,0.00
2005,05,19,05,57,0.00
2005,05,19,05,58,0.00
2005,05,19,05,59,0.00
2005,05,19,06,00,0.00
2005,05,19,06,01,0.00
2005,05,19,06,02,2.70
2005,05,19,06,03,3.20
2005,05,19,06,04,2.80
2005,05,19,06,05,1.60
2005,05,19,06,06,1.70
2005,05,19,06,07,1.50
2005,05,19,06,08,3.00
2005,05,19,06,09,4.10
2005,05,19,06,10,3.60
2005,05,19,06,11,4.20
2005,05,19,06,12,4.00
2005,05,19,06,13,6.30
2005,05,19,06,14,8.70
2005,05,19,06,15,5.60
2005,05,19,06,16,4.60
2005,05,19,06,17,5.90
2005,05,19,06,18,5.30
2005,05,19,06,19,3.20
2005,05,19,06,20,4.00
2005,05,19,06,21,3.70
2005,05,19,06,22,0.00
2005,05,19,06,23,3.10
2005,05,19,06,24,8.70
2005,05,19,06,25,8.70
2005,05,19,06,26,9.10
2005,05,19,06,27,4.70
2005,05,19,06,28,7.30
2005,05,19,06,29,5.80
2005,05,19,06,30,4.70
2005,05,19,06,31,12.50
2005,05,19,06,32,9.30
2005,05,19,06,33,11.40
2005,05,19,06,34,10.40
2005,05,19,06,35,6.70
2005,05,19,06,36,7.20
2005,05,19,06,37,9.30
2005,05,19,06,38,6.00
2005,05,19,06,39,5.10
2005,05,19,06,40,4.80
2005,05,19,06,41,5.90
2005,05,19,06,42,2.30
2005,05,19,06,43,3.30
2005,05,19,06,44,5.10
2005,05,19,06,45,3.40
2005,05,19,06,46,1.90
2005,05,19,06,47,1.40
2005,05,19,06,48,1.70
2005,05,19,06,49,0.50
2005,05,19,06,50,2.50
2005,05,19,06,51,2.80
2005,05,19,06,52,0.10
2005,05,19,06,53,0.50
2005,05,19,06,54,0.30
2005,05,19,06,55,0.20
2005,05,19,06,56,2.30
2005,05,19,06,57,2.40
2005,05,19,06,58,0.30
2005,05,19,06,59,1.10
2005,05,19,07,00,0.10
2005,05,19,07,01,0.40
2005,05,19,07,02,0.30
2005,05,19,07,03,0.20
2005,05,19,07,04,2.10
2005,05,19,07,05,0.00
2005,05,19,07,06,0.00
2005,05,19,07,07,0.00
2005,05,19,07,08,0.80
2005,05,19,07,09,1.00
2005,05,19,07,10,0.30
2005,05,19,07,11,0.10
2005,05,19,07,12,0.00
2005,05,19,07,13,0.00
2005,05,19,07,14,0.00
2005,05,19,07,15,0.00
2005,05,19,07,16,0.00
2005,05,19,07,17,0.00
2005,05,19,07,18,0.10
2005,05,19,07,19,0.20
2005,05,19,07,20,0.20
2005,05,19,07,21,0.60
2005,05,19,07,22,0.90
2005,05,19,07,23,3.20
2005,05,19,07,24,4.70
2005,05,19,07,25,2.60
2005,05,19,07,26,4.00
2005,05,19,07,27,10.10
2005,05,19,07,28,9.10
2005,05,19,07,29,6.00
2005,05,19,07,30,9.30
2005,05,19,07,31,7.20
2005,05,19,07,32,6.00
2005,05,19,07,33,8.70
2005,05,19,07,34,7.60
2005,05,19,07,35,2.50
2005,05,19,07,36,4.80
2005,05,19,07,37,3.10
2005,05,19,07,38,3.60
2005,05,19,07,39,8.40
2005,05,19,07,40,4.10
2005,05,19,07,41,3.00
2005,05,19,07,42,5.20
2005,05,19,07,43,1.90
2005,05,19,07,44,2.70
2005,05,19,07,45,2.00
2005,05,19,07,46,1.60
2005,05,19,07,47,2.60
2005,05,19,07,48,2.50
2005,05,19,07,49,3.30
2005,05,19,07,50,7.10
2005,05,19,07,51,9.70
2005,05,19,07,52,7.00
2005,05,19,07,53,10.60
2005,05,19,07,54,10.30
2005,05,19,07,55,9.40
2005,05,19,07,56,8.00
2005,05,19,07,57,10.30
2005,05,19,07,58,10.50
2005,05,19,07,59,8.30
2005,05,19,08,00,7.70
2005,05,19,08,01,13.80
2005,05,19,08,02,9.30
2005,05,19,08,03,8.50
2005,05,19,08,04,10.80
2005,05,19,08,05,6.20
2005,05,19,08,06,9.10
2005,05,19,08,07,12.20
2005,05,19,08,08,7.60
2005,05,19,08,09,7.70
2005,05,19,08,10,3.40
2005,05,19,08,11,6.40
2005,05,19,08,12,3.60
2005,05,19,08,13,3.40
2005,05,19,08,14,2.40
2005,05,19,08,15,4.30
2005,05,19,08,16,5.90
2005,05,19,08,17,8.80
2005,05,19,08,18,15.40
2005,05,19,08,19,12.30
2005,05,19,08,20,13.70
2005,05,19,08,21,10.20
2005,05,19,08,22,12.50
2005,05,19,08,23,9.10
2005,05,19,08,24,7.20
2005,05,19,08,25,11.70
2005,05,19,08,26,12.50
2005,05,19,08,27,14.60
2005,05,19,08,28,15.40
2005,05,19,08,29,9.80
2005,05,19,08,30,13.20
2005,05,19,08,31,11.40
2005,05,19,08,32,11.50
2005,05,19,08,33,13.40
2005,05,19,08,34,13.80
2005,05,19,08,35,13.20
2005,05,19,08,36,12.00
2005,05,19,08,37,16.90
2005,05,19,08,38,12.00
2005,05,19,08,39,9.30
2005,05,19,08,40,7.10
2005,05,19,08,41,8.50
2005,05,19,08,42,11.80
2005,05,19,08,43,11.90
2005,05,19,08,44,7.10
2005,05,19,08,45,9.90
2005,05,19,08,46,8.60
2005,05,19,08,47,6.80
2005,05,19,08,48,7.20
2005,05,19,08,49,4.00
2005,05,19,08,50,0.30
2005,05,19,08,51,3.20
2005,05,19,08,52,3.90
2005,05,19,08,53,0.70
2005,05,19,08,54,3.50
2005,05,19,08,55,3.70
2005,05,19,08,56,1.50
2005,05,19,08,57,1.90
2005,05,19,08,58,1.60
2005,05,19,08,59,1.80
2005,05,19,09,00,3.00
2005,05,19,09,01,1.50
2005,05,19,09,02,0.40
2005,05,19,09,03,0.10
2005,05,19,09,04,1.70
2005,05,19,09,05,1.00
2005,05,19,09,06,0.90
2005,05,19,09,07,2.60
2005,05,19,09,08,1.80
2005,05,19,09,09,1.70
2005,05,19,09,10,0.60
2005,05,19,09,11,3.60
2005,05,19,09,12,1.40
2005,05,19,09,13,8.40
2005,05,19,09,14,0.70
2005,05,19,09,15,2.00
2005,05,19,09,16,2.10
2005,05,19,09,17,2.10
2005,05,19,09,18,2.60
2005,05,19,09,19,2.20
2005,05,19,09,20,1.90
2005,05,19,09,21,3.60
2005,05,19,09,22,5.10
2005,05,19,09,23,3.90
2005,05,19,09,24,2.40
2005,05,19,09,25,3.00
2005,05,19,09,26,4.10
2005,05,19,09,27,6.40
2005,05,19,09,28,2.90
2005,05,19,09,29,3.40
2005,05,19,09,30,2.60
2005,05,19,09,31,1.40
2005,05,19,09,32,0.50
2005,05,19,09,33,2.10
2005,05,19,09,34,0.50
2005,05,19,09,35,2.00
2005,05,19,09,36,1.20
2005,05,19,09,37,2.40
2005,05,19,09,38,3.00
2005,05,19,09,39,4.00
2005,05,19,09,40,1.40
2005,05,19,09,41,1.80
2005,05,19,09,42,1.90
2005,05,19,09,43,1.70
2005,05,19,09,44,1.40
2005,05,19,09,45,3.00
2005,05,19,09,46,5.80
2005,05,19,09,47,5.40
2005,05,19,09,48,2.10
2005,05,19,09,49,5.70
2005,05,19,09,50,2.20
2005,05,19,09,51,2.10
2005,05,19,09,52,4.60
2005,05,19,09,53,3.10
2005,05,19,09,54,3.20
2005,05,19,09,55,1.40
2005,05,19,09,56,1.40
2005,05,19,09,57,1.10
2005,05,19,09,58,0.40
2005,05,19,09,59,0.10
2005,05,19,10,00,1.50
2005,05,19,10,01,3.10
2005,05,19,10,02,2.10
2005,05,19,10,03,7.30
2005,05,19,10,04,4.80
2005,05,19,10,05,5.80
2005,05,19,10,06,0.50
2005,05,19,10,07,3.40
2005,05,19,10,08,8.70
2005,05,19,10,09,9.00
2005,05,19,10,10,11.50
2005,05,19,10,11,15.50
2005,05,19,10,12,15.30
2005,05,19,10,13,15.10
2005,05,19,10,14,10.90
2005,05,19,10,15,14.00
2005,05,19,10,16,11.90
2005,05,19,10,17,11.50
2005,05,19,10,18,9.30
2005,05,19,10,19,10.90
2005,05,19,10,20,13.60
2005,05,19,10,21,11.40
2005,05,19,10,22,11.40
2005,05,19,10,23,8.40
2005,05,19,10,24,8.40
2005,05,19,10,25,8.10
2005,05,19,10,26,7.60
2005,05,19,10,27,8.80
2005,05,19,10,28,10.30
2005,05,19,10,29,12.60
2005,05,19,10,30,9.80
2005,05,19,10,31,5.70
2005,05,19,10,32,2.50
2005,05,19,10,33,5.40
2005,05,19,10,34,4.20
2005,05,19,10,35,5.10
2005,05,19,10,36,6.80
2005,05,19,10,37,4.90
2005,05,19,10,38,6.80
2005,05,19,10,39,8.70
2005,05,19,10,40,4.80
2005,05,19,10,41,4.80
2005,05,19,10,42,5.50
2005,05,19,10,43,6.70
2005,05,19,10,44,4.50
2005,05,19,10,45,8.60
2005,05,19,10,46,8.00
2005,05,19,10,47,9.20
2005,05,19,10,48,6.00
2005,05,19,10,49,6.60
2005,05,19,10,50,6.40
2005,05,19,10,51,2.60
2005,05,19,10,52,3.50
2005,05,19,10,53,4.20
2005,05,19,10,54,1.30
2005,05,19,10,55,0.40
2005,05,19,10,56,0.50
2005,05,19,10,57,0.30
2005,05,19,10,58,0.00
2005,05,19,10,59,0.40
2005,05,19,11,00,0.30
2005,05,19,11,01,0.60
2005,05,19,11,02,1.10
2005,05,19,11,03,0.20
2005,05,19,11,04,1.00
2005,05,19,11,05,0.20
2005,05,19,11,06,1.80
2005,05,19,11,07,1.00
2005,05,19,11,08,0.10
2005,05,19,11,09,1.40
2005,05,19,11,10,0.60
2005,05,19,11,11,1.10
2005,05,19,11,12,3.50
2005,05,19,11,13,3.40
2005,05,19,11,14,6.80
2005,05,19,11,15,9.10
2005,05,19,11,16,6.00
2005,05,19,11,17,11.40
2005,05,19,11,18,7.70
2005,05,19,11,19,5.10
2005,05,19,11,20,9.80
2005,05,19,11,21,9.00
2005,05,19,11,22,7.90
2005,05,19,11,23,6.90
2005,05,19,11,24,7.50
2005,05,19,11,25,5.20
2005,05,19,11,26,10.40
2005,05,19,11,27,8.60
2005,05,19,11,28,11.90
2005,05,19,11,29,6.60
2005,05,19,11,30,5.60
2005,05,19,11,31,5.00
2005,05,19,11,32,2.30
2005,05,19,11,33,1.40
2005,05,19,11,34,2.70
2005,05,19,11,35,0.50
2005,05,19,11,36,3.60
2005,05,19,11,37,5.00
2005,05,19,11,38,5.50
2005,05,19,11,39,3.90
2005,05,19,11,40,3.90
2005,05,19,11,41,2.00
2005,05,19,11,42,5.10
2005,05,19,11,43,5.90
2005,05,19,11,44,6.70
2005,05,19,11,45,3.70
2005,05,19,11,46,4.00
2005,05,19,11,47,2.10
2005,05,19,11,48,0.10
2005,05,19,11,49,1.20
2005,05,19,11,50,0.80
2005,05,19,11,51,1.40
2005,05,19,11,52,0.60
2005,05,19,11,53,2.10
2005,05,19,11,54,0.80
2005,05,19,11,55,0.00
2005,05,19,11,56,1.70
2005,05,19,11,57,1.70
2005,05,19,11,58,1.10
2005,05,19,11,59,0.80
2005,05,19,12,00,1.20
2005,05,19,12,01,0.20
2005,05,19,12,02,0.90
2005,05,19,12,03,2.70
2005,05,19,12,04,1.60
2005,05,19,12,05,0.60
2005,05,19,12,06,2.00
2005,05,19,12,07,2.00
2005,05,19,12,08,2.50
2005,05,19,12,09,2.70
2005,05,19,12,10,0.50
2005,05,19,12,11,0.60
2005,05,19,12,12,0.80
2005,05,19,12,13,1.30
2005,05,19,12,14,1.40
2005,05,19,12,15,2.20
2005,05,19,12,16,1.40
2005,05,19,12,17,0.00
2005,05,19,12,18,2.40
2005,05,19,12,19,1.40
2005,05,19,12,20,3.20
2005,05,19,12,21,1.00
2005,05,19,12,22,0.00
2005,05,19,12,23,2.20
2005,05,19,12,24,2.40
2005,05,19,12,25,1.90
2005,05,19,12,26,1.00
2005,05,19,12,27,1.00
2005,05,19,12,28,8.00
2005,05,19,12,29,8.90
2005,05,19,12,30,5.60
2005,05,19,12,31,0.80
2005,05,19,12,32,4.40
2005,05,19,12,33,12.80
2005,05,19,12,34,11.90
2005,05,19,12,35,3.90
2005,05,19,12,36,3.00
2005,05,19,12,37,7.50
2005,05,19,12,38,4.80
2005,05,19,12,39,8.60
2005,05,19,12,40,6.50
2005,05,19,12,41,0.30
2005,05,19,12,42,6.00
2005,05,19,12,43,5.90
2005,05,19,12,44,6.00
2005,05,19,12,45,9.30
2005,05,19,12,46,8.60
2005,05,19,12,47,7.50
2005,05,19,12,48,1.20
2005,05,19,12,49,1.40
2005,05,19,12,50,2.30
2005,05,19,12,51,1.90
2005,05,19,12,52,1.10
2005,05,19,12,53,1.80
2005,05,19,12,54,4.00
2005,05,19,12,55,3.40
2005,05,19,12,56,3.50
2005,05,19,12,57,2.50
2005,05,19,12,58,2.90
2005,05,19,12,59,3.80
2005,05,19,13,00,4.20
2005,05,19,13,01,8.90
2005,05,19,13,02,6.00
2005,05,19,13,03,1.60
2005,05,19,13,04,5.40
2005,05,19,13,05,5.20
2005,05,19,13,06,5.20
2005,05,19,13,07,4.40
2005,05,19,13,08,2.00
2005,05,19,13,09,1.90
2005,05,19,13,10,0.50
2005,05,19,13,11,1.00
2005,05,19,13,12,0.60
2005,05,19,13,13,1.40
2005,05,19,13,14,5.60
2005,05,19,13,15,3.90
2005,05,19,13,16,6.90
2005,05,19,13,17,3.40
2005,05,19,13,18,4.40
2005,05,19,13,19,8.80
2005,05,19,13,20,6.70
2005,05,19,13,21,2.90
2005,05,19,13,22,6.90
2005,05,19,13,23,8.00
2005,05,19,13,24,6.50
2005,05,19,13,25,3.60
2005,05,19,13,26,6.80
2005,05,19,13,27,9.90
2005,05,19,13,28,5.20
2005,05,19,13,29,8.30
2005,05,19,13,30,4.70
2005,05,19,13,31,10.40
2005,05,19,13,32,2.50
2005,05,19,13,33,8.20
2005,05,19,13,34,3.50
2005,05,19,13,35,8.00
2005,05,19,13,36,6.40
2005,05,19,13,37,4.70
2005,05,19,13,38,5.60
2005,05,19,13,39,6.60
2005,05,19,13,40,4.00
2005,05,19,13,41,4.30
2005,05,19,13,42,6.60
2005,05,19,13,43,8.30
2005,05,19,13,44,5.50
2005,05,19,13,45,5.90
2005,05,19,13,46,5.30
2005,05,19,13,47,6.40
2005,05,19,13,48,8.60
2005,05,19,13,49,3.50
2005,05,19,13,50,7.40
2005,05,19,13,51,3.10
2005,05,19,13,52,4.40
2005,05,19,13,53,13.80
2005,05,19,13,54,11.30
2005,05,19,13,55,7.60
2005,05,19,13,56,7.90
2005,05,19,13,57,2.80
2005,05,19,13,58,3.00
2005,05,19,13,59,6.60
2005,05,19,14,00,8.50
2005,05,19,14,01,3.00
2005,05,19,14,02,7.60
2005,05,19,14,03,6.10
2005,05,19,14,04,9.00
2005,05,19,14,05,12.20
2005,05,19,14,06,10.40
2005,05,19,14,07,8.60
2005,05,19,14,08,0.90
2005,05,19,14,09,2.90
2005,05,19,14,10,6.20
2005,05,19,14,11,9.20
2005,05,19,14,12,7.80
2005,05,19,14,13,6.90
2005,05,19,14,14,10.10
2005,05,19,14,15,2.40
2005,05,19,14,16,10.40
2005,05,19,14,17,13.50
2005,05,19,14,18,6.50
2005,05,19,14,19,10.90
2005,05,19,14,20,12.50
2005,05,19,14,21,5.50
2005,05,19,14,22,7.10
2005,05,19,14,23,4.60
2005,05,19,14,24,0.10
2005,05,19,14,25,12.00
2005,05,19,14,26,12.80
2005,05,19,14,27,6.90
2005,05,19,14,28,11.70
2005,05,19,14,29,13.50
2005,05,19,14,30,8.00
2005,05,19,14,31,7.20
2005,05,19,14,32,10.30
2005,05,19,14,33,6.30
2005,05,19,14,34,2.70
2005,05,19,14,35,5.00
2005,05,19,14,36,4.60
2005,05,19,14,37,9.30
2005,05,19,14,38,4.10
2005,05,19,14,39,10.30
2005,05,19,14,40,6.10
2005,05,19,14,41,5.60
2005,05,19,14,42,3.60
2005,05,19,14,43,9.60
2005,05,19,14,44,8.40
2005,05,19,14,45,12.60
2005,05,19,14,46,5.60
2005,05,19,14,47,10.00
2005,05,19,14,48,6.90
2005,05,19,14,49,5.50
2005,05,19,14,50,9.10
2005,05,19,14,51,10.80
2005,05,19,14,52,10.50
2005,05,19,14,53,8.50
2005,05,19,14,54,6.50
2005,05,19,14,55,10.00
2005,05,19,14,56,7.80
2005,05,19,14,57,10.80
2005,05,19,14,58,11.30
2005,05,19,14,59,12.60
2005,05,19,15,00,12.50
2005,05,19,15,01,12.80
2005,05,19,15,02,14.20
2005,05,19,15,03,13.20
2005,05,19,15,04,12.20
2005,05,19,15,05,9.30
2005,05,19,15,06,8.60
2005,05,19,15,07,8.90
2005,05,19,15,08,9.20
2005,05,19,15,09,9.00
2005,05,19,15,10,10.80
2005,05,19,15,11,10.10
2005,05,19,15,12,8.90
2005,05,19,15,13,6.20
2005,05,19,15,14,8.60
2005,05,19,15,15,6.90
2005,05,19,15,16,8.40
2005,05,19,15,17,14.10
2005,05,19,15,18,10.90
2005,05,19,15,19,14.10
2005,05,19,15,20,9.50
2005,05,19,15,21,10.30
2005,05,19,15,22,11.00
2005,05,19,15,23,10.10
2005,05,19,15,24,9.70
2005,05,19,15,25,6.40
2005,05,19,15,26,7.70
2005,05,19,15,27,5.30
2005,05,19,15,28,10.80
2005,05,19,15,29,9.70
2005,05,19,15,30,7.10
2005,05,19,15,31,8.90
2005,05,19,15,32,12.00
2005,05,19,15,33,13.40
2005,05,19,15,34,10.90
2005,05,19,15,35,12.10
2005,05,19,15,36,10.50
2005,05,19,15,37,12.50
2005,05,19,15,38,11.80
2005,05,19,15,39,11.10
2005,05,19,15,40,9.50
2005,05,19,15,41,7.40
2005,05,19,15,42,6.40
2005,05,19,15,43,8.90
2005,05,19,15,44,9.00
2005,05,19,15,45,9.60
2005,05,19,15,46,10.80
2005,05,19,15,47,11.90
2005,05,19,15,48,9.70
2005,05,19,15,49,9.70
2005,05,19,15,50,13.20
2005,05,19,15,51,11.10
2005,05,19,15,52,10.10
2005,05,19,15,53,8.80
2005,05,19,15,54,11.70
2005,05,19,15,55,17.10
2005,05,19,15,56,14.30
2005,05,19,15,57,12.10
2005,05,19,15,58,12.10
2005,05,19,15,59,11.60
2005,05,19,16,00,11.40
2005,05,19,16,01,10.30
2005,05,19,16,02,6.80
2005,05,19,16,03,11.80
2005,05,19,16,04,10.00
2005,05,19,16,05,10.10
2005,05,19,16,06,8.60
2005,05,19,16,07,7.40
2005,05,19,16,08,7.60
2005,05,19,16,09,7.30
2005,05,19,16,10,11.60
2005,05,19,16,11,9.80
2005,05,19,16,12,7.20
2005,05,19,16,13,7.60
2005,05,19,16,14,9.90
2005,05,19,16,15,5.70
2005,05,19,16,16,4.00
2005,05,19,16,17,2.80
2005,05,19,16,18,5.10
2005,05,19,16,19,5.30
2005,05,19,16,20,7.40
2005,05,19,16,21,6.30
2005,05,19,16,22,4.30
2005,05,19,16,23,2.50
2005,05,19,16,24,0.30
2005,05,19,16,25,0.50
2005,05,19,16,26,5.20
2005,05,19,16,27,2.30
2005,05,19,16,28,0.20
2005,05,19,16,29,3.00
2005,05,19,16,30,5.90
2005,05,19,16,31,2.80
2005,05,19,16,32,5.30
2005,05,19,16,33,3.10
2005,05,19,16,34,5.60
2005,05,19,16,35,4.70
2005,05,19,16,36,4.20
2005,05,19,16,37,5.40
2005,05,19,16,38,6.00
2005,05,19,16,39,3.70
2005,05,19,16,40,2.70
2005,05,19,16,41,2.90
2005,05,19,16,42,3.50
2005,05,19,16,43,5.10
2005,05,19,16,44,1.80
2005,05,19,16,45,2.00
2005,05,19,16,46,2.60
2005,05,19,16,47,0.20
2005,05,19,16,48,0.40
2005,05,19,16,49,0.60
2005,05,19,16,50,1.20
2005,05,19,16,51,6.40
2005,05,19,16,52,6.50
2005,05,19,16,53,4.40
2005,05,19,16,54,3.80
2005,05,19,16,55,4.50
2005,05,19,16,56,3.10
2005,05,19,16,57,5.10
2005,05,19,16,58,6.40
2005,05,19,16,59,6.20
2005,05,19,17,00,3.40
2005,05,19,17,01,1.50
2005,05,19,17,02,0.00
2005,05,19,17,03,0.30
2005,05,19,17,04,2.20
2005,05,19,17,05,6.70
2005,05,19,17,06,1.70
2005,05,19,17,07,1.70
2005,05,19,17,08,1.00
2005,05,19,17,09,3.30
2005,05,19,17,10,2.30
2005,05,19,17,11,6.30
2005,05,19,17,12,5.90
2005,05,19,17,13,6.00
2005,05,19,17,14,3.80
2005,05,19,17,15,10.60
2005,05,19,17,16,8.10
2005,05,19,17,17,4.60
2005,05,19,17,18,5.50
2005,05,19,17,19,6.70
2005,05,19,17,20,12.50
2005,05,19,17,21,10.20
2005,05,19,17,22,8.10
2005,05,19,17,23,9.10
2005,05,19,17,24,5.20
2005,05,19,17,25,1.70
2005,05,19,17,26,0.60
2005,05,19,17,27,2.20
2005,05,19,17,28,1.10
2005,05,19,17,29,1.10
2005,05,19,17,30,2.60
2005,05,19,17,31,3.70
2005,05,19,17,32,2.70
2005,05,19,17,33,2.30
2005,05,19,17,34,3.10
2005,05,19,17,35,0.90
2005,05,19,17,36,0.00
2005,05,19,17,37,0.20
2005,05,19,17,38,0.10
2005,05,19,17,39,0.00
2005,05,19,17,40,1.40
2005,05,19,17,41,0.90
2005,05,19,17,42,6.60
2005,05,19,17,43,5.90
2005,05,19,17,44,0.50
2005,05,19,17,45,0.00
2005,05,19,17,46,0.00
2005,05,19,17,47,1.50
2005,05,19,17,48,0.70
2005,05,19,17,49,1.60
2005,05,19,17,50,3.90
2005,05,19,17,51,8.40
2005,05,19,17,52,6.90
2005,05,19,17,53,3.60
2005,05,19,17,54,5.80
2005,05,19,17,55,5.30
2005,05,19,17,56,3.10
2005,05,19,17,57,2.90
2005,05,19,17,58,1.50
2005,05,19,17,59,3.00
2005,05,19,18,00,3.60
2005,05,19,18,01,4.10
2005,05,19,18,02,8.00
2005,05,19,18,03,5.80
2005,05,19,18,04,2.30
2005,05,19,18,05,1.90
2005,05,19,18,06,6.60
2005,05,19,18,07,6.10
2005,05,19,18,08,4.40
2005,05,19,18,09,3.00
2005,05,19,18,10,5.10